Wind_Speed
7 7 10 11 4 6 16 7 4 13 10 14 10 9 10 10 12 6 12 10 18 19 18 26 25 23 22 23 24 24 23 19 17 16 14 12 10 9 8 8 9 10 10 9 9 9 10 11 12
5 5 9 7 5 7 1 7 13 11 9 6 6 2 6 7 16 13 8 9 15 18 18 28 26 24 22 22 24 24 22 18 17 16 15 13 11 10 9 8 8 9 9 8 8 8 9 10 10
2 2 9 5 8 12 7 10 10 8 8 7 6 6 2 7 12 6 4 11 16 15 20 29 27 25 22 22 23 23 21 18 17 17 16 14 12 11 10 9 8 8 8 8 7 7 7 7 8
5 8 9 6 17 5 7 10 7 3 7 9 10 4 7 6 4 4 3 15 19 14 20 29 27 25 23 22 22 21 20 18 18 18 17 15 13 12 11 10 9 8 8 8 6 6 6 6 6
8 10 9 13 21 5 8 7 3 4 4 6 7 10 8 8 7 5 6 12 19 18 18 26 28 25 23 22 21 20 19 18 18 19 17 16 14 13 12 11 10 9 8 7 7 6 5 5 4
10 15 11 13 17 9 7 6 2 1 2 5 5 9 5 8 5 5 7 13 16 19 22 22 28 27 25 23 22 20 19 19 19 19 18 17 16 15 14 13 11 10 9 8 7 6 5 4 3
13 9 15 19 19 19 10 11 4 3 5 5 6 7 7 10 7 6 8 13 15 18 22 24 27 30 27 25 23 21 21 20 20 20 19 18 17 16 15 14 13 11 10 9 8 6 6 5 4
16 9 18 15 15 12 9 5 4 3 6 3 7 4 7 5 5 4 8 14 18 19 22 21 27 32 30 28 25 24 23 22 22 21 20 19 19 18 17 16 14 12 11 10 9 8 7 6 5
11 7 11 15 15 10 8 3 8 3 8 7 9 11 9 1 3 4 8 13 17 22 23 22 25 35 33 30 28 26 25 24 24 23 22 21 20 19 18 17 16 14 13 12 11 9 9 8 7
9 9 13 16 13 11 15 4 11 9 14 13 13 16 9 10 7 8 12 14 18 20 21 21 25 36 35 32 31 30 29 28 27 26 25 23 21 19 19 19 17 16 14 13 12 11 10 9 6
10 14 17 23 23 12 15 20 19 15 16 16 15 10 11 15 13 14 15 19 22 22 21 22 22 32 35 32 34 33 32 31 30 29 28 25 20 15 15 18 19 19 17 16 14 13 11 5 2
18 23 22 22 23 19 17 17 22 20 22 22 23 23 18 17 18 19 20 18 24 26 26 25 21 27 30 31 31 34 35 33 32 30 28 27 21 20 20 21 19 20 20 18 16 15 11 8 16
17 17 23 24 24 25 20 20 20 27 27 25 27 24 25 20 17 20 21 19 21 31 30 30 28 27 26 29 28 27 34 33 33 31 29 27 25 23 18 20 20 17 19 18 12 9 14 19 20
19 21 21 24 26 26 23 23 24 29 29 29 27 23 17 15 17 18 19 22 21 25 34 33 32 32 31 32 27 29 27 27 28 28 31 28 27 26 23 21 23 20 15 14 17 17 22 18 18
16 16 18 22 26 23 27 21 21 27 30 32 25 20 13 18 18 19 18 22 24 24 34 36 34 32 29 31 26 33 34 34 36 37 33 31 30 27 26 25 24 20 18 21 19 20 20 17 19
17 18 18 19 20 24 15 18 16 18 20 12 12 14 19 24 21 21 26 15 21 22 25 33 34 33 26 31 29 32 35 37 39 35 30 28 32 28 28 28 28 25 25 26 26 25 22 21 18
14 14 19 19 19 17 16 20 15 18 26 21 17 23 24 29 30 17 24 17 19 19 19 28 32 33 31 30 31 25 26 25 25 25 29 27 33 32 29 30 27 28 32 29 28 25 23 20 17
15 17 18 18 19 23 23 25 18 16 23 25 29 32 33 36 27 18 19 15 19 21 20 28 31 32 32 30 33 27 27 28 27 32 31 28 33 33 31 30 31 32 33 26 24 22 22 20 20
17 19 23 21 20 22 21 25 20 24 27 25 28 29 30 27 19 14 16 18 12 15 16 28 31 34 34 31 29 33 30 28 33 33 33 33 30 31 36 34 33 33 31 23 24 23 22 22 20
21 22 23 23 20 21 22 26 22 21 24 32 33 33 29 13 13 14 12 7 6 8 15 20 28 33 32 31 29 32 31 35 36 34 36 35 29 31 39 36 33 34 29 26 25 26 24 20 25
22 20 21 23 22 20 22 29 18 20 24 3 13 6 7 8 11 7 5 3 6 8 11 14 25 29 30 32 30 38 38 39 37 37 33 33 30 30 34 34 33 35 31 30 29 28 23 28 24
23 19 21 20 19 16 16 22 17 18 19 15 3 13 5 4 5 5 4 3 3 7 14 20 24 25 28 27 29 36 42 41 42 37 32 32 29 36 40 38 38 34 32 31 33 29 29 26 34
25 21 23 18 18 19 18 13 12 10 13 12 14 12 9 5 1 1 0 4 13 15 16 20 23 24 26 30 30 31 35 36 38 37 34 33 33 34 33 30 30 29 27 26 26 30 26 29 27
15 17 18 12 13 16 18 16 10 3 12 16 15 13 8 5 3 3 6 9 13 12 17 21 22 23 25 27 27 29 30 33 33 34 33 32 31 29 27 22 18 15 12 11 11 11 7 13 16
15 14 7 8 9 11 17 13 14 9 10 10 10 10 8 6 4 4 5 5 11 9 9 16 21 22 22 24 28 28 31 31 31 28 29 33 30 26 18 7 8 4 6 4 8 18 23 29 30
16 17 7 8 10 12 9 8 4 10 10 12 11 7 12 7 7 7 7 8 10 11 9 12 15 19 20 21 26 28 29 28 25 24 27 28 22 16 10 5 8 8 12 21 18 18 16 25 29
20 17 17 16 14 11 9 16 18 11 11 7 2 0 3 6 7 7 9 8 8 7 8 10 12 14 17 19 20 20 19 16 18 19 20 22 24 18 14 13 10 9 11 11 9 11 12 17 19
24 13 12 8 6 8 10 13 7 4 12 8 3 6 7 8 8 8 8 9 8 7 7 3 5 10 14 14 14 15 16 19 21 24 27 26 20 15 12 15 12 12 13 10 10 9 10 12 13
13 13 11 10 9 4 8 9 4 8 7 4 3 6 10 14 15 14 12 11 11 12 13 14 15 14 15 16 18 19 21 22 23 23 22 18 16 15 14 14 14 15 13 12 11 12 13 13 14
14 15 15 9 16 10 11 20 7 10 8 8 14 18 20 19 13 13 15 15 17 17 16 15 15 14 17 18 19 22 22 22 23 23 20 18 18 18 17 16 16 15 14 13 13 13 13 13 12
Wind_Direction
304 344 354 306 258 227 263 85 28 42 15 10 349 343 343 314 19 79 133 146 195 199 186 177 172 166 165 166 167 173 175 172 169 170 167 164 159 158 154 145 139 134 131 126 122 116 111 106 107
291 283 281 273 249 263 253 68 57 46 37 357 339 346 292 46 56 103 127 144 194 208 188 180 175 171 168 166 169 173 175 177 176 177 175 173 169 169 167 161 153 146 140 137 131 127 122 118 115
13 317 274 225 246 261 46 55 45 47 59 12 1 349 6 55 49 71 119 139 179 205 188 183 178 175 172 168 172 174 179 183 185 183 183 181 180 178 175 172 166 159 150 144 139 132 128 124 127
326 252 249 255 278 331 36 55 39 19 82 16 4 339 72 59 85 120 165 158 171 182 184 182 181 180 177 173 174 176 183 190 191 189 189 187 185 185 184 181 176 171 166 156 153 148 145 143 139
264 269 261 257 258 229 91 55 26 21 60 316 5 3 41 79 84 102 154 167 176 175 194 184 186 185 184 181 180 182 183 191 193 192 191 193 190 190 190 189 185 182 179 176 170 167 164 161 155
274 252 277 270 300 116 116 99 7 288 21 333 6 349 81 103 91 90 151 168 180 177 197 193 191 190 190 188 188 187 185 190 192 195 196 197 195 194 194 193 193 189 188 186 189 188 187 193 203
252 286 278 291 300 300 145 134 205 7 287 31 357 317 103 89 76 105 146 172 177 185 209 201 198 193 193 194 195 192 189 191 194 197 200 200 200 201 199 197 196 194 191 193 202 210 220 226 235
252 284 275 278 281 291 97 138 97 264 310 14 297 291 7 94 88 117 150 168 177 187 213 212 205 197 195 196 199 197 194 194 197 201 204 205 204 205 204 202 203 203 203 205 216 225 237 247 248
263 263 264 269 275 57 121 244 195 197 274 275 267 275 317 167 120 151 173 177 188 194 215 222 211 199 199 198 199 200 199 199 201 203 206 208 209 207 208 209 208 211 213 216 222 230 237 240 247
226 259 261 283 308 310 313 242 270 282 287 273 235 249 267 241 227 217 203 207 203 201 207 230 209 202 201 200 202 202 202 203 204 206 208 209 212 214 214 215 214 215 220 224 228 230 230 233 243
241 249 269 285 310 321 308 308 300 287 265 274 279 293 269 277 267 228 226 225 220 209 204 220 214 206 204 201 206 206 205 206 206 209 210 209 206 217 209 227 222 223 222 225 228 227 220 183 182
243 253 268 286 288 296 298 289 292 295 283 289 286 282 279 273 261 267 257 223 222 207 204 204 218 212 209 195 216 209 211 210 210 213 215 208 198 212 213 227 240 235 230 228 228 226 207 195 212
261 277 273 270 279 282 282 273 272 270 276 279 276 276 276 276 280 276 273 256 236 211 206 206 201 213 215 192 218 218 215 215 215 216 217 211 196 210 221 234 241 253 232 223 225 206 209 218 219
282 294 297 291 282 280 276 274 275 270 277 271 267 264 267 266 268 277 282 271 243 226 206 207 208 210 211 198 206 216 211 219 215 215 218 210 192 211 222 219 238 243 231 205 213 205 228 229 225
275 275 273 268 269 265 266 262 253 268 272 264 255 267 265 269 267 261 264 274 263 251 209 206 214 218 219 206 210 207 201 203 208 213 216 209 196 209 220 219 223 221 220 213 218 213 227 217 221
278 268 269 271 259 258 224 265 277 285 285 318 289 252 260 263 262 279 280 261 258 251 213 206 213 220 219 203 218 223 224 223 224 222 222 214 203 204 221 222 223 220 216 212 213 217 221 213 219
234 253 264 271 262 282 268 272 264 281 295 286 267 262 258 256 259 264 281 246 253 251 228 210 214 218 224 210 208 222 222 229 222 220 228 225 212 211 221 226 222 218 219 223 224 222 218 212 199
244 257 283 298 307 312 306 297 297 261 253 266 270 276 277 275 276 274 269 258 252 234 245 219 213 217 220 219 220 220 215 226 219 217 226 224 220 215 221 226 224 221 222 226 218 218 211 206 196
268 272 271 274 285 292 290 286 286 286 282 279 276 273 276 281 277 265 267 248 247 233 250 211 209 210 214 214 218 214 219 212 212 211 215 221 222 223 222 225 221 225 222 217 214 214 212 198 189
260 273 276 283 291 295 296 294 301 299 288 275 271 263 266 289 273 248 213 192 213 241 236 206 209 212 218 224 221 213 220 212 217 218 217 225 223 224 224 223 223 226 219 204 217 212 195 190 198
259 265 279 284 292 294 298 283 277 269 260 275 316 356 23 5 12 136 121 38 195 230 226 204 212 222 216 220 218 217 220 223 225 227 224 226 220 223 229 221 236 222 215 201 202 205 200 190 200
258 261 272 287 292 283 289 292 288 284 266 277 300 87 92 90 37 42 75 66 205 240 206 212 210 216 221 228 233 231 231 232 234 236 226 232 237 226 227 225 216 214 204 203 207 198 195 193 184
280 286 278 267 280 289 275 271 291 283 237 214 133 121 109 107 138 356 302 203 223 222 216 208 218 229 243 246 242 243 236 236 238 237 247 246 232 225 226 223 220 213 207 195 200 189 199 182 184
273 275 258 257 267 260 260 242 286 330 51 90 98 113 138 162 181 198 235 250 253 251 225 219 232 229 237 241 238 241 240 237 235 239 237 226 220 219 214 215 212 216 219 225 217 218 198 166 183
245 241 225 226 221 244 255 240 219 143 102 114 129 145 164 171 175 209 224 240 278 262 231 218 221 226 233 236 233 238 238 237 239 241 231 218 214 208 208 166 136 125 295 239 236 216 210 212 205
216 220 201 213 225 252 264 253 232 114 124 144 156 178 174 181 206 217 225 224 254 262 229 215 212 219 222 228 234 234 234 234 236 239 220 213 207 170 148 195 275 266 246 240 223 235 235 224 218
228 214 230 268 289 291 268 282 296 146 108 95 53 334 211 220 242 238 230 230 224 246 238 208 207 213 221 222 226 227 226 225 217 204 196 181 169 182 196 209 199 222 219 216 219 217 219 223 219
235 206 213 220 244 239 245 249 252 82 139 138 181 215 244 236 226 235 240 233 220 211 237 221 198 209 211 212 210 206 199 200 195 185 180 181 184 187 193 193 192 192 187 190 191 190 191 200 201
200 235 236 232 229 250 273 260 338 103 113 50 327 225 213 238 214 212 214 228 225 200 191 178 191 201 194 192 195 195 191 193 186 183 183 188 190 192 190 186 181 182 186 189 192 197 203 209 209
224 213 227 224 237 245 252 266 274 285 340 47 352 331 321 319 239 217 214 211 215 204 190 189 197 208 198 194 190 188 187 186 187 189 188 187 188 184 180 183 184 185 181 184 191 195 195 200 203
Height
1505 1505 1505 1505 1511 1495 1481 1472 1461 1470 1473 1476 1477 1477 1478 1476 1474 1494 1491 1492 1489 1490 1495 1499 1502 1505 1508 1511 1514 1519 1522 1525 1528 1531 1533 1535 1538 1541 1543 1545 1546 1547 1548 1550 1551 1552 1553 1554 1555
1505 1508 1509 1505 1506 1504 1480 1461 1469 1472 1476 1477 1476 1476 1476 1477 1481 1488 1492 1492 1491 1491 1495 1498 1501 1504 1508 1512 1514 1518 1523 1526 1529 1532 1535 1537 1540 1542 1544 1546 1548 1549 1549 1551 1552 1553 1554 1555 1556
1506 1508 1508 1496 1487 1486 1477 1467 1470 1473 1476 1478 1476 1476 1476 1483 1485 1489 1492 1493 1494 1492 1495 1499 1502 1505 1509 1512 1516 1519 1523 1526 1530 1532 1535 1537 1540 1543 1545 1547 1549 1551 1552 1553 1554 1555 1556 1557 1558
1509 1509 1505 1498 1486 1466 1466 1469 1475 1475 1476 1478 1477 1475 1480 1484 1486 1489 1489 1493 1494 1494 1494 1499 1504 1507 1510 1512 1515 1519 1523 1527 1531 1533 1536 1539 1541 1544 1546 1548 1550 1551 1553 1553 1555 1556 1557 1558 1559
1510 1506 1499 1490 1477 1462 1464 1473 1477 1477 1479 1481 1481 1478 1481 1486 1486 1487 1489 1493 1494 1493 1494 1498 1503 1507 1511 1513 1516 1519 1522 1527 1531 1534 1537 1539 1541 1543 1546 1548 1550 1552 1554 1555 1556 1557 1559 1560 1561
1508 1500 1499 1490 1469 1462 1467 1473 1477 1478 1480 1480 1480 1482 1484 1486 1487 1488 1489 1492 1495 1495 1492 1496 1502 1506 1511 1514 1516 1519 1522 1526 1530 1534 1536 1539 1541 1542 1544 1547 1549 1551 1553 1555 1557 1558 1559 1560 1561
1505 1499 1495 1485 1477 1466 1464 1471 1477 1479 1481 1481 1484 1482 1483 1485 1487 1488 1489 1492 1495 1495 1493 1496 1499 1504 1509 1513 1517 1519 1521 1525 1529 1532 1535 1538 1540 1542 1543 1545 1547 1549 1551 1554 1555 1557 1559 1560 1561
1501 1498 1495 1487 1484 1474 1472 1474 1477 1481 1481 1484 1485 1482 1483 1486 1487 1489 1489 1491 1493 1495 1492 1495 1498 1501 1505 1511 1515 1518 1520 1523 1527 1530 1534 1537 1538 1540 1542 1543 1546 1547 1549 1552 1554 1556 1557 1558 1559
1500 1500 1494 1484 1478 1477 1476 1477 1477 1480 1483 1484 1484 1483 1484 1483 1486 1489 1491 1491 1492 1492 1491 1492 1496 1499 1502 1507 1511 1516 1519 1521 1524 1527 1531 1534 1536 1538 1541 1542 1544 1545 1547 1550 1552 1554 1555 1556 1557
1497 1495 1488 1476 1471 1473 1474 1475 1476 1479 1479 1479 1481 1480 1482 1482 1484 1487 1488 1490 1490 1491 1491 1490 1492 1496 1499 1504 1507 1511 1515 1518 1521 1524 1528 1532 1534 1538 1539 1541 1542 1544 1546 1548 1550 1551 1553 1554 1555
1494 1494 1486 1479 1475 1476 1477 1478 1476 1476 1476 1477 1478 1477 1479 1480 1481 1480 1482 1483 1484 1488 1490 1489 1491 1494 1497 1501 1503 1508 1512 1515 1518 1521 1525 1529 1533 1535 1538 1538 1540 1542 1543 1546 1548 1550 1552 1554 1555
1489 1484 1482 1481 1478 1475 1476 1478 1477 1476 1472 1476 1476 1476 1476 1476 1476 1478 1477 1476 1479 1479 1483 1487 1489 1492 1495 1500 1500 1505 1509 1512 1516 1519 1523 1527 1531 1533 1536 1537 1539 1540 1542 1543 1545 1547 1550 1551 1554
1482 1480 1480 1479 1477 1474 1474 1474 1474 1472 1473 1474 1471 1471 1472 1473 1474 1475 1474 1474 1476 1472 1475 1480 1487 1491 1494 1499 1500 1503 1505 1509 1512 1516 1519 1523 1527 1531 1535 1536 1537 1538 1540 1541 1542 1545 1546 1547 1549
1482 1480 1479 1479 1476 1474 1471 1469 1469 1464 1466 1465 1465 1465 1466 1469 1471 1472 1472 1471 1471 1471 1469 1472 1478 1484 1492 1496 1501 1500 1503 1506 1510 1513 1515 1520 1525 1529 1532 1533 1534 1536 1538 1540 1541 1544 1544 1545 1545
1483 1482 1477 1473 1469 1465 1463 1461 1460 1458 1457 1454 1455 1458 1461 1465 1466 1466 1467 1468 1468 1469 1464 1467 1472 1478 1485 1493 1498 1498 1500 1502 1505 1507 1511 1516 1520 1524 1527 1528 1531 1532 1536 1538 1540 1540 1542 1543 1543
1484 1480 1480 1463 1457 1451 1454 1460 1453 1454 1452 1453 1454 1457 1460 1460 1460 1461 1462 1461 1464 1465 1460 1463 1468 1473 1480 1488 1494 1496 1499 1501 1503 1506 1508 1512 1516 1520 1524 1525 1528 1531 1532 1533 1536 1536 1538 1539 1542
1475 1480 1467 1457 1447 1444 1444 1446 1444 1449 1450 1450 1451 1453 1453 1452 1452 1452 1456 1456 1460 1462 1460 1459 1463 1468 1474 1483 1490 1491 1495 1497 1499 1503 1504 1508 1512 1515 1518 1521 1524 1525 1526 1528 1531 1533 1534 1536 1539
1468 1462 1453 1455 1450 1445 1446 1443 1439 1442 1444 1444 1445 1447 1447 1446 1445 1447 1450 1452 1454 1457 1460 1454 1458 1464 1470 1478 1486 1490 1493 1495 1497 1498 1501 1505 1508 1512 1514 1516 1518 1520 1521 1524 1526 1528 1530 1532 1535
1463 1464 1462 1453 1451 1452 1451 1442 1440 1439 1438 1437 1437 1438 1437 1437 1440 1442 1447 1447 1450 1452 1456 1453 1455 1459 1465 1472 1480 1486 1488 1490 1490 1492 1496 1500 1504 1507 1508 1510 1512 1515 1517 1520 1523 1523 1529 1533 1535
1457 1458 1456 1446 1450 1450 1442 1435 1436 1436 1433 1430 1430 1429 1430 1431 1433 1438 1440 1443 1447 1451 1454 1453 1454 1457 1462 1468 1475 1480 1482 1483 1487 1489 1493 1496 1500 1503 1503 1506 1507 1510 1512 1514 1518 1521 1522 1530 1531
1455 1458 1456 1453 1452 1450 1449 1433 1431 1423 1418 1421 1422 1425 1427 1434 1435 1436 1440 1442 1447 1450 1452 1454 1452 1455 1459 1463 1470 1474 1476 1479 1482 1484 1487 1491 1494 1497 1499 1501 1504 1505 1507 1508 1510 1512 1509 1515 1526
1453 1451 1449 1453 1456 1460 1451 1444 1435 1423 1418 1416 1420 1426 1431 1434 1437 1440 1440 1444 1447 1448 1450 1454 1453 1454 1456 1460 1465 1469 1472 1474 1476 1480 1482 1486 1490 1491 1492 1493 1494 1497 1500 1501 1504 1502 1514 1511 1515
1443 1449 1448 1449 1454 1455 1455 1454 1428 1407 1408 1408 1417 1427 1432 1435 1438 1440 1441 1443 1444 1446 1448 1449 1452 1453 1455 1458 1461 1463 1467 1469 1472 1476 1479 1482 1485 1487 1489 1490 1493 1495 1497 1498 1505 1500 1510 1503 1515
1446 1450 1446 1449 1456 1462 1452 1448 1431 1414 1411 1411 1421 1428 1433 1436 1438 1439 1440 1440 1440 1442 1444 1445 1448 1451 1453 1455 1456 1458 1460 1463 1467 1468 1471 1474 1478 1481 1484 1489 1494 1498 1498 1503 1505 1508 1511 1506 1511
1446 1454 1467 1468 1465 1456 1431 1425 1420 1410 1412 1416 1423 1428 1432 1434 1436 1439 1441 1442 1439 1438 1439 1440 1442 1444 1447 1450 1453 1455 1458 1459 1460 1463 1465 1467 1472 1476 1481 1485 1490 1491 1499 1495 1496 1504 1501 1503 1509
1442 1444 1452 1462 1449 1434 1411 1425 1413 1407 1410 1415 1422 1426 1429 1433 1434 1437 1440 1441 1439 1436 1437 1438 1439 1442 1443 1446 1450 1451 1453 1454 1457 1459 1459 1463 1467 1473 1477 1477 1488 1480 1483 1484 1489 1500 1498 1501 1509
1434 1441 1431 1439 1435 1441 1428 1415 1403 1409 1416 1421 1425 1427 1430 1434 1436 1437 1439 1440 1439 1437 1436 1436 1438 1440 1442 1443 1446 1448 1450 1452 1455 1457 1460 1462 1465 1467 1470 1476 1475 1481 1488 1489 1493 1497 1496 1502 1500
1423 1422 1441 1441 1459 1460 1429 1422 1417 1409 1414 1420 1424 1426 1428 1429 1432 1435 1439 1440 1440 1439 1438 1439 1437 1437 1439 1441 1444 1447 1448 1450 1453 1455 1458 1462 1466 1469 1471 1475 1477 1480 1486 1488 1493 1494 1496 1500 1499
1424 1427 1427 1428 1432 1449 1443 1427 1403 1409 1414 1418 1419 1421 1423 1425 1425 1429 1433 1437 1439 1437 1436 1436 1434 1434 1434 1436 1440 1443 1445 1448 1452 1456 1460 1463 1465 1468 1471 1473 1477 1479 1483 1488 1490 1492 1495 1496 1495
1407 1414 1420 1437 1437 1429 1431 1412 1407 1407 1411 1417 1420 1423 1423 1423 1423 1425 1429 1431 1436 1437 1435 1437 1435 1432 1432 1434 1437 1439 1442 1446 1450 1454 1458 1461 1464 1467 1469 1473 1477 1479 1480 1483 1487 1490 1492 1493 1493